{"data":{"norad_id":58218,"intl_designator":"2023-170N","name":"STARLINK-30794","alt_names":[],"object_type":"PAYLOAD","status":"ACTIVE","operator":null,"country":"US","launch_date":"2023-11-03","launch_site_code":"AFETR","launch_vehicle":null,"mission":null,"orbit_class":"UNKNOWN","rcs_meters":null,"size_class":null,"mass_kg":null,"dimensions":null,"purposes":["comms"],"wikipedia_slug":null,"has_3d_model":false,"image_url":null,"decayed_at":null,"tle_current":{"epoch":"2026-05-25T04:46:31.310400Z","epoch_age_seconds":68583,"freshness":"FRESH","line1":"1 58218U 23170N   26145.19897350  .00003045  00000+0  12016-3 0  9991","line2":"2 58218  43.0024 121.8614 0001712 267.2761  92.7895 15.27576667142003","mean_motion":15.27576667,"eccentricity":0.0001712,"inclination_deg":43.0024,"raan_deg":121.8614,"arg_perigee_deg":267.2761,"mean_anomaly_deg":92.7895,"bstar":0.00012016,"rev_number":14200,"period_min":94.266954393066,"perigee_km":481.88443949058,"apogee_km":484.2337130271,"semimajor_km":6861.1960762588,"source":"CELESTRAK","updated_at":"2026-05-25T13:38:18.576388Z"}}}